DW2851 Weather Reports


Display with metric or nautical units.
time (UTC)temp
F
wind
direction
speed
MPH
gust
MPH
rain 1hr
in
rain 24hr
in
rain mn
in
humidity
%
barometer
mb
20200225100536 41 221 8.0 19.0 0.00 0.00 0.00 79 995.0
20200225100113 41 263 8.0 17.0 0.00 0.00 0.00 80 995.0
20200225095536 41 240 8.0 15.0 0.00 0.00 0.00 81 995.0
20200225095033 41 260 6.0 14.0 0.00 0.00 0.00 82 995.0
20200225094554 40 239 8.0 14.0 0.00 0.00 0.00 82 995.1
20200225094032 39 238 6.0 16.0 0.00 0.00 0.00 82 995.1
20200225093533 39 250 6.0 16.0 0.00 0.00 0.00 83 995.0
20200225093110 39 240 6.0 17.0 0.00 0.00 0.00 83 995.0
20200225092528 38 250 6.0 17.0 0.00 0.00 0.00 82 995.1
20200225092029 38 234 6.0 17.0 0.00 0.00 0.00 83 995.1
20200225090547 38 232 6.0 14.0 0.00 0.00 0.00 83 995.1
20200225090105 38 241 8.0 14.0 0.00 0.00 0.00 83 995.2
20200225085526 38 262 7.0 12.0 0.00 0.00 0.00 83 995.2
20200225085025 38 236 6.0 12.0 0.00 0.00 0.00 83 995.2
20200225084530 38 219 4.0 12.0 0.00 0.00 0.00 82 995.3
20200225084023 38 236 5.0 12.0 0.00 0.00 0.00 82 995.3
20200225083522 38 241 4.0 11.0 0.00 0.00 0.00 82 995.4
20200225083042 38 243 3.0 8.0 0.00 0.00 0.00 81 995.5
20200225082520 38 235 3.0 9.0 0.00 0.00 0.00 81 995.4
20200225082023 38 219 4.0 11.0 0.00 0.00 0.00 81 995.4
20200225081545 38 257 4.0 13.0 0.00 0.00 0.00 80 995.4
20200225080521 38 229 3.0 10.0 0.00 0.00 0.00 80 995.4
20200225080057 38 263 3.0 11.0 0.00 0.00 0.00 80 995.4
20200225075522 37 246 5.0 11.0 0.00 0.00 0.00 80 995.4
20200225075020 37 213 5.0 14.0 0.00 0.00 0.00 81 995.4
20200225074538 37 171 7.0 15.0 0.00 0.00 0.00 81 995.4
20200225074019 37 238 6.0 15.0 0.00 0.00 0.00 81 995.5
20200225073519 37 243 7.0 13.0 0.00 0.00 0.00 81 995.5
20200225073019 37 256 6.0 11.0 0.00 0.00 0.00 81 995.5
20200225072516 37 231 7.0 16.0 0.00 0.00 0.00 81 995.4
20200225072021 37 193 9.0 16.0 0.00 0.00 0.00 81 995.4
20200225071537 37 236 9.0 16.0 0.00 0.00 0.00 81 995.5
20200225070511 37 238 6.0 16.0 0.00 0.00 0.00 81 995.5
20200225070032 37 259 9.0 16.0 0.00 0.00 0.00 81 995.6
20200225065511 37 219 9.0 18.0 0.00 0.00 0.00 81 995.6
20200225065010 37 200 9.0 18.0 0.00 0.00 0.00 81 995.5
20200225064529 37 210 7.0 15.0 0.00 0.00 0.00 81 995.6
20200225064009 37 224 7.0 15.0 0.00 0.00 0.00 81 995.7
20200225063513 37 251 8.0 16.0 0.00 0.00 0.00 81 995.7
20200225063038 37 239 8.0 16.0 0.00 0.00 0.00 81 995.8
20200225062508 37 234 7.0 16.0 0.00 0.00 0.00 81 995.8
20200225062009 37 212 7.0 18.0 0.00 0.00 0.00 81 995.8
20200225061506 37 240 8.0 18.0 0.00 0.00 0.00 81 995.9
20200225060506 38 271 8.0 18.0 0.00 0.00 0.00 81 996.1
20200225060009 38 246 8.0 18.0 0.00 0.00 0.00 81 996.0
20200225055506 38 255 10.0 18.0 0.00 0.00 0.00 81 996.2
20200225055010 38 248 8.0 17.0 0.00 0.00 0.00 81 996.3
20200225054503 38 252 7.0 17.0 0.00 0.00 0.00 81 996.4
20200225054013 38 240 8.0 17.0 0.00 0.00 0.00 81 996.4
20200225053502 38 244 7.0 17.0 0.00 0.00 0.00 81 996.5
20200225053015 38 231 6.0 20.0 0.00 0.00 0.00 81 996.6
20200225052502 38 240 6.0 20.0 0.00 0.00 0.00 81 996.7
20200225052003 38 242 8.0 20.0 0.00 0.00 0.00 81 996.7
20200225051503 38 254 8.0 20.0 0.00 0.00 0.00 81 996.6
20200225050506 38 249 9.0 21.0 0.00 0.00 0.00 81 996.5
20200225050002 38 248 10.0 21.0 0.00 0.00 0.00 81 996.6
20200225045505 38 236 8.0 19.0 0.00 0.00 0.00 81 996.6
20200225045000 38 244 10.0 17.0 0.00 0.00 0.00 81 996.6
20200225044815 38 243 9.0 17.0 0.00 0.00 0.00 81 996.5
20200225044103 38 249 8.0 17.0 0.00 0.00 0.00 81 996.5
20200225043559 38 244 10.0 17.0 0.00 0.00 0.00 80 996.5
20200225043217 38 236 10.0 17.0 0.00 0.00 0.00 80 996.5
20200225042620 38 203 10.0 17.0 0.00 0.00 0.00 80 996.4
20200225042139 38 238 10.0 21.0 0.00 0.00 0.00 80 996.4
20200225041621 38 246 9.0 21.0 0.00 0.00 0.00 80 996.4
20200225041058 38 242 8.0 16.0 0.00 0.00 0.00 80 996.4
20200225040558 38 237 9.0 16.0 0.00 0.00 0.00 80 996.4
20200225040236 37 263 8.0 17.0 0.00 0.00 0.00 80 996.4
20200225035556 37 243 9.0 17.0 0.00 0.00 0.00 80 996.4
20200225035055 37 247 8.0 17.0 0.00 0.00 0.00 80 996.4
20200225034615 38 232 9.0 17.0 0.00 0.00 0.00 80 996.5
20200225034055 37 236 8.0 17.0 0.00 0.00 0.00 80 996.5
20200225033613 38 256 8.0 16.0 0.00 0.00 0.00 80 996.6
20200225033253 38 234 8.0 16.0 0.00 0.00 0.00 80 996.8
20200225032556 38 239 7.0 19.0 0.00 0.00 0.00 80 996.7
20200225032059 38 243 7.0 19.0 0.00 0.00 0.00 80 996.7
20200225031609 38 219 7.0 19.0 0.00 0.00 0.00 80 996.7
20200225031050 38 220 8.0 19.0 0.00 0.00 0.00 80 996.7
20200225030549 38 263 8.0 19.0 0.00 0.00 0.00 80 996.7
20200225030154 38 219 7.0 19.0 0.00 0.00 0.00 80 996.8
20200225025554 38 246 6.0 19.0 0.00 0.00 0.00 80 996.8
20200225025106 38 253 6.0 19.0 0.00 0.00 0.00 80 996.8
20200225024622 38 183 7.0 19.0 0.00 0.00 0.00 79 996.8
20200225024051 38 231 7.0 19.0 0.00 0.00 0.00 79 996.9
20200225023550 38 236 7.0 19.0 0.00 0.00 0.00 79 996.9
20200225023107 38 255 6.0 19.0 0.00 0.00 0.00 80 997.0
20200225022542 38 254 6.0 16.0 0.00 0.00 0.00 80 997.0
20200225022041 38 219 6.0 16.0 0.00 0.00 0.00 80 997.1
20200225021602 38 249 6.0 16.0 0.00 0.00 0.00 80 997.1
20200225021041 38 232 4.0 14.0 0.00 0.00 0.00 81 997.2
20200225020556 38 229 4.0 14.0 0.00 0.00 0.00 81 997.2
20200225020152 38 287 5.0 14.0 0.00 0.00 0.00 82 997.3
20200225015544 38 232 5.0 17.0 0.00 0.00 0.00 82 997.3
20200225015040 38 244 6.0 17.0 0.00 0.00 0.00 82 997.2
20200225014647 38 229 6.0 17.0 0.00 0.00 0.00 82 997.2
20200225014040 38 286 6.0 17.0 0.00 0.00 0.00 82 997.3
20200225013540 38 249 6.0 15.0 0.00 0.00 0.00 82 997.3
20200225013216 38 244 6.0 16.0 0.00 0.00 0.00 82 997.3
20200225012540 38 252 5.0 16.0 0.00 0.00 0.00 81 997.3
20200225012040 38 246 5.0 16.0 0.00 0.00 0.00 81 997.3
20200225011648 38 267 6.0 16.0 0.00 0.00 0.00 81 997.2
20200225011044 38 240 7.0 16.0 0.00 0.00 0.00 81 997.2
20200225010547 38 232 7.0 16.0 0.00 0.00 0.00 81 997.2
20200225010134 38 238 7.0 16.0 0.00 0.00 0.00 81 997.3
20200225005541 38 262 7.0 15.0 0.00 0.00 0.00 82 997.2
20200225005038 38 273 6.0 15.0 0.00 0.00 0.00 81 997.2
20200225004619 38 205 6.0 14.0 0.00 0.00 0.00 82 997.2
20200225004039 38 246 6.0 14.0 0.00 0.00 0.00 81 997.2
20200225003538 38 250 5.0 14.0 0.00 0.00 0.00 81 997.2
20200225003107 39 248 4.0 14.0 0.00 0.00 0.00 81 997.1
20200225002543 39 184 5.0 14.0 0.00 0.00 0.00 81 997.1
20200225002038 39 242 6.0 19.0 0.00 0.00 0.00 81 997.1
20200225001607 39 234 6.0 19.0 0.00 0.00 0.00 80 997.2
20200225001038 39 245 5.0 19.0 0.00 0.00 0.00 80 997.0
20200225000524 39 226 5.0 19.0 0.00 0.00 0.00 80 997.0
20200225000025 39 257 5.0 19.0 0.00 0.00 0.00 80 997.2
20200224235535 39 103 7.0 19.0 0.00 0.00 0.00 80 997.1
20200224235022 39 255 6.0 16.0 0.00 0.00 0.00 80 997.2
20200224234534 39 249 7.0 22.0 0.00 0.00 0.00 80 997.2
20200224234015 39 231 6.0 22.0 0.00 0.00 0.00 80 997.1
20200224233524 39 239 6.0 22.0 0.00 0.00 0.00 80 997.2
20200224233057 39 234 8.0 22.0 0.00 0.00 0.00 80 997.2
20200224232522 39 245 7.0 21.0 0.00 0.00 0.00 80 997.2
20200224232015 39 260 7.0 21.0 0.00 0.00 0.00 80 997.1
20200224231539 39 236 7.0 21.0 0.00 0.00 0.00 80 997.1
20200224230547 39 291 7.0 21.0 0.00 0.00 0.00 80 997.0
20200224230139 39 279 8.0 21.0 0.00 0.00 0.00 80 997.0
20200224225537 39 252 8.0 21.0 0.00 0.00 0.00 79 997.0
20200224225038 39 234 9.0 21.0 0.00 0.00 0.00 79 997.0
20200224224627 39 268 9.0 21.0 0.00 0.00 0.00 79 997.0
20200224224037 39 238 10.0 21.0 0.00 0.00 0.00 79 997.1
20200224223538 39 227 9.0 21.0 0.00 0.00 0.00 79 997.1
20200224223126 39 220 9.0 21.0 0.00 0.00 0.00 79 997.0
20200224222536 39 265 7.0 19.0 0.00 0.00 0.00 79 997.0
20200224222036 39 246 9.0 20.0 0.00 0.00 0.00 79 997.0
20200224221553 39 218 7.0 20.0 0.00 0.00 0.00 79 997.0
20200224221036 39 239 8.0 20.0 0.00 0.00 0.00 79 997.0
20200224220538 39 236 8.0 20.0 0.00 0.00 0.00 79 997.0
20200224220123 39 313 8.0 18.0 0.00 0.00 0.00 79 997.0
20200224215539 39 254 7.0 18.0 0.00 0.00 0.00 79 997.0
20200224215041 39 225 8.0 18.0 0.00 0.00 0.00 79 997.0
20200224214602 39 251 8.0 18.0 0.00 0.00 0.00 79 996.9
20200224214038 40 182 6.0 14.0 0.00 0.00 0.00 79 996.8
20200224213542 40 211 5.0 14.0 0.00 0.00 0.00 79 996.8
20200224213100 40 276 5.0 16.0 0.00 0.00 0.00 79 996.9
20200224212537 40 281 6.0 16.0 0.00 0.00 0.00 79 996.9
20200224212038 40 247 4.0 14.0 0.00 0.00 0.00 79 996.9
20200224211545 40 266 5.0 21.0 0.00 0.00 0.00 79 996.9
20200224211036 40 244 7.0 24.0 0.00 0.00 0.00 78 996.8
20200224210534 40 265 7.0 24.0 0.00 0.00 0.00 78 996.7
20200224210154 40 242 7.0 21.0 0.00 0.00 0.00 78 996.7
20200224205545 40 225 8.0 21.0 0.00 0.00 0.00 78 996.6
20200224205034 41 257 8.0 22.0 0.00 0.00 0.00 78 996.6
20200224204536 41 238 10.0 22.0 0.00 0.00 0.00 78 996.5
20200224204033 41 243 8.0 22.0 0.00 0.00 0.00 78 996.5
20200224203554 41 245 7.0 25.0 0.00 0.00 0.00 78 996.6
20200224203132 41 291 9.0 25.0 0.00 0.00 0.00 78 996.7
20200224202537 41 236 8.0 22.0 0.00 0.00 0.00 78 996.6
20200224202055 41 243 5.0 20.0 0.00 0.00 0.00 78 996.6
20200224201606 41 309 8.0 20.0 0.00 0.00 0.00 78 996.4
20200224201040 42 232 9.0 21.0 0.00 0.00 0.00 78 996.4
20200224200536 42 273 10.0 21.0 0.00 0.00 0.00 78 996.3
20200224200100 42 274 9.0 23.0 0.00 0.00 0.00 78 996.1
20200224195533 42 257 10.0 28.0 0.00 0.00 0.00 78 996.0
20200224195045 42 190 10.0 28.0 0.00 0.00 0.00 78 996.0
20200224194702 42 220 10.0 28.0 0.00 0.00 0.00 77 996.0
20200224194032 42 250 9.0 23.0 0.00 0.00 0.00 77 995.9
20200224193607 42 236 9.0 27.0 0.00 0.00 0.00 77 995.7
20200224193058 42 255 12.0 27.0 0.00 0.00 0.00 77 995.6
20200224192534 42 267 12.0 27.0 0.00 0.00 0.00 76 995.4
20200224192035 42 252 12.0 26.0 0.00 0.00 0.00 76 995.4
20200224191550 42 280 11.0 26.0 0.00 0.00 0.00 75 995.2
20200224191032 43 188 9.0 28.0 0.00 0.00 0.00 76 995.3
20200224190532 43 247 10.0 28.0 0.00 0.00 0.00 76 995.2
20200224190032 43 221 12.0 25.0 0.00 0.00 0.00 76 995.1
20200224185531 43 215 11.0 26.0 0.00 0.00 0.00 77 995.1
20200224185036 43 250 11.0 28.0 0.00 0.00 0.00 77 994.9
20200224184616 43 218 16.0 30.0 0.00 0.00 0.00 77 994.8
20200224184031 43 257 10.0 33.0 0.00 0.00 0.00 77 994.9
20200224183534 43 209 13.0 26.0 0.00 0.00 0.00 77 994.9
20200224183036 43 244 12.0 22.0 0.00 0.00 0.00 77 994.9
20200224182533 44 221 10.0 22.0 0.00 0.00 0.00 77 994.9
20200224182039 44 226 8.0 22.0 0.00 0.00 0.00 78 995.1
20200224181638 44 209 10.0 23.0 0.00 0.00 0.00 78 994.9
20200224181030 44 242 14.0 25.0 0.00 0.00 0.00 79 994.7
20200224180536 44 286 14.0 25.0 0.00 0.00 0.00 79 994.6
20200224180054 44 249 10.0 27.0 0.00 0.00 0.00 79 994.5
20200224175531 45 244 10.0 29.0 0.00 0.00 0.00 79 994.4
20200224175030 45 277 13.0 29.0 0.00 0.00 0.00 79 994.4
20200224174559 45 254 11.0 30.0 0.00 0.00 0.00 79 994.2
20200224174030 45 258 13.0 30.0 0.00 0.00 0.00 79 994.2
20200224173530 45 255 12.0 32.0 0.00 0.00 0.00 79 994.2
20200224173051 45 241 13.0 33.0 0.00 0.00 0.00 79 994.3
20200224172532 45 276 8.0 33.0 0.00 0.00 0.00 79 994.2
20200224172047 46 242 16.0 33.0 0.00 0.00 0.00 79 994.1
20200224171615 46 268 13.0 32.0 0.00 0.00 0.00 79 994.1
20200224171031 47 244 13.0 31.0 0.00 0.00 0.00 78 994.0
20200224170530 47 164 13.0 31.0 0.00 0.00 0.00 78 994.0
20200224170138 47 221 13.0 27.0 0.00 0.00 0.00 78 993.9
20200224165528 47 234 14.0 29.0 0.00 0.00 0.00 77 993.8
20200224165034 48 239 15.0 37.0 0.00 0.00 0.00 76 993.7
20200224164547 49 247 18.0 31.0 0.00 0.00 0.00 75 993.7
20200224164033 49 236 12.0 29.0 0.00 0.00 0.00 76 993.7
20200224163528 50 260 13.0 30.0 0.00 0.00 0.00 77 993.8
20200224163044 50 238 12.0 30.0 0.00 0.00 0.00 77 993.6
20200224162529 51 280 14.0 38.0 0.00 0.00 0.00 78 993.5
20200224162028 51 249 14.0 38.0 0.00 0.00 0.00 78 993.3
20200224161540 51 213 10.0 28.0 0.00 0.00 0.00 78 993.3
20200224161032 51 260 14.0 28.0 0.00 0.00 0.00 78 993.1
20200224160529 51 225 14.0 28.0 0.00 0.00 0.00 78 993.3
20200224160051 51 246 10.0 32.0 0.00 0.00 0.00 78 993.2
20200224155559 51 251 13.0 32.0 0.00 0.00 0.00 78 993.2
20200224155025 52 265 12.0 28.0 0.00 0.00 0.00 78 993.3
20200224154552 52 234 11.0 28.0 0.00 0.00 0.00 78 993.2
20200224154030 52 296 11.0 27.0 0.00 0.00 0.00 79 993.3
20200224153529 52 67 8.0 21.0 0.00 0.00 0.00 79 993.5
20200224153041 52 233 10.0 27.0 0.00 0.00 0.00 80 993.4
20200224152523 52 215 10.0 29.0 0.00 0.00 0.00 79 993.3
20200224152024 52 298 13.0 27.0 0.00 0.00 0.00 79 993.2
20200224151551 52 242 11.0 23.0 0.00 0.00 0.00 80 993.4
20200224151022 52 202 13.0 24.0 0.00 0.00 0.00 80 993.5
20200224150523 52 258 13.0 24.0 0.00 0.00 0.00 80 993.5
20200224150028 52 80 11.0 26.0 0.00 0.00 0.00 81 993.5
20200224145522 52 232 11.0 26.0 0.00 0.00 0.00 81 993.5
20200224145021 52 211 10.0 25.0 0.00 0.00 0.00 81 993.4
20200224144530 53 245 12.0 24.0 0.00 0.00 0.00 81 993.5
20200224144020 53 213 11.0 25.0 0.00 0.00 0.00 81 993.5
20200224143520 53 236 13.0 25.0 0.00 0.00 0.00 80 993.5
20200224143027 53 240 12.0 24.0 0.00 0.00 0.00 81 993.6
20200224142520 53 277 9.0 33.0 0.00 0.00 0.00 81 993.6
20200224142019 53 235 13.0 33.0 0.00 0.00 0.00 81 993.7
20200224141548 53 245 13.0 27.0 0.00 0.00 0.00 81 993.7
20200224141028 53 225 10.0 23.0 0.00 0.00 0.00 82 993.8
20200224140519 53 244 10.0 23.0 0.00 0.00 0.00 82 993.8
20200224140047 53 248 10.0 24.0 0.00 0.00 0.00 82 993.8
20200224135541 53 199 13.0 27.0 0.00 0.00 0.00 82 993.7
20200224135018 53 246 14.0 30.0 0.00 0.00 0.00 82 993.8
20200224134518 53 254 12.0 30.0 0.00 0.00 0.00 82 993.9
20200224134020 53 243 11.0 30.0 0.00 0.00 0.00 82 993.9
20200224133516 53 232 16.0 28.0 0.00 0.00 0.00 82 994.0
20200224133035 53 242 12.0 25.0 0.00 0.00 0.00 83 994.1
20200224132515 52 223 11.0 22.0 0.00 0.00 0.00 83 994.2
20200224132014 52 225 13.0 22.0 0.00 0.00 0.00 84 994.3
20200224131513 52 217 13.0 22.0 0.00 0.00 0.00 84 994.4
20200224131025 51 251 11.0 24.0 0.00 0.00 0.00 86 994.7
20200224130514 51 212 10.0 24.0 0.00 0.00 0.00 86 994.7
20200224130029 51 186 11.0 21.0 0.00 0.00 0.00 87 994.7
20200224125509 50 214 11.0 21.0 0.00 0.00 0.00 87 994.9
20200224125008 50 221 10.0 22.0 0.00 0.00 0.00 87 995.0
20200224124523 49 217 12.0 22.0 0.00 0.00 0.00 88 995.0
20200224124006 49 236 11.0 23.0 0.00 0.00 0.00 88 995.1
20200224123503 48 207 13.0 23.0 0.00 0.00 0.00 89 995.2
20200224123012 47 228 10.0 20.0 0.00 0.00 0.00 89 995.5
20200224122504 47 226 11.0 20.0 0.00 0.00 0.00 89 995.5
20200224122100 46 209 11.0 20.0 0.00 0.00 0.00 90 995.6
20200224121720 46 218 12.0 22.0 0.00 0.00 0.00 90 995.7
20200224121057 46 198 16.0 28.0 0.00 0.00 0.00 90 995.9
20200224120212 45 222 16.0 24.0 0.00 0.00 0.00 90 996.0
20200224115554 44 209 17.0 26.0 0.00 0.00 0.00 90 996.1
20200224115053 44 180 15.0 23.0 0.00 0.00 0.00 90 996.2
20200224114619 43 201 17.0 25.0 0.00 0.00 0.00 90 996.4
20200224114116 43 180 16.0 23.0 0.00 0.00 0.00 90 996.5
20200224113553 43 200 17.0 23.0 0.00 0.00 0.00 90 996.5
20200224113233 42 186 17.0 26.0 0.00 0.00 0.00 90 996.7
20200224112606 42 169 16.0 22.0 0.00 0.00 0.00 90 996.8
20200224112046 42 191 16.0 23.0 0.00 0.00 0.00 90 996.9
20200224111630 41 183 15.0 23.0 0.00 0.00 0.00 90 997.1
20200224111049 41 170 13.0 24.0 0.00 0.00 0.00 90 997.3
20200224110148 40 200 14.0 23.0 0.00 0.00 0.00 90 997.7
20200224105617 39 186 14.0 19.0 0.00 0.00 0.00 90 998.0
20200224105038 39 167 13.0 20.0 0.00 0.00 0.00 90 998.1
20200224104607 39 166 12.0 22.0 0.00 0.00 0.00 90 998.3
20200224104036 39 191 13.0 22.0 0.00 0.00 0.00 90 998.5
20200224103546 39 166 11.0 21.0 0.00 0.00 0.00 90 998.6
20200224103058 39 188 11.0 24.0 0.00 0.00 0.00 90 999.0
20200224102533 39 173 10.0 21.0 0.00 0.00 0.00 90 999.1
20200224102052 39 159 11.0 20.0 0.00 0.00 0.00 90 999.3
20200224101552 39 181 11.0 20.0 0.00 0.00 0.00 90 999.4